Tracking 31027 objects as of 19-Jul-2025
HD Live streaming from Space Station
objects crossing your sky now

STARLINK-4687

Track STARLINK-4687 now!
10-day predictions
STARLINK-4687 is classified as:


NORAD ID: 53784
Int'l Code: 2022-111M
Perigee: 546.1 km
Apogee: 547.6 km
Inclination: 53.2 °
Period: 95.4 minutes
Semi major axis: 6917 km
RCS: Unknown
Launch date: September 11, 2022
Source: United States (US)
Launch site: AIR FORCE EASTERN TEST RANGE (AFETR)
Your satellite tracking list
FENGYUN 1C DEB
Track 1 satellite(s)




NASA's NSSDC Master Catalog

Two Line Element Set (TLE):
1 53784U 22111M   25199.84905995  .00000451  00000-0  46419-4 0  9997
2 53784  53.2169 243.9124 0001081  83.3397 276.7718 15.08836883157587
Source of the keplerian elements: AFSPC